Miscellaneous Local Product
Issued by NWS Hastings, NE

Home | Current Version | Previous Version | Graphics & Text | Print | Product List | Glossary On
Versions: 1 2 3 4 5 6 7 8 9 10 11 12 13 14 15 16 17 18 19 20 21 22 23 24 25 26 27 28 29 30 31 32 33 34 35 36 37 38 39 40 41 42 43 44 45 46 47 48 49 50
000
AXUS43 KGID 220110
MISGRI

GID CWA HOURLY WEATHER ROUNDUP
NATIONAL WEATHER SERVICE HASTINGS NE
800 PM CDT MON JUL 21 2014

NOTE: "FAIR" INDICATES FEW OR NO CLOUDS BELOW 12,000 FEET WITH NO
SIGNIFICANT WEATHER AND/OR OBSTRUCTIONS TO VISIBILITY.

...SOUTH CENTRAL NEBRASKA...

CITY           SKY/WX    TMP DP  RH WIND       PRES   REMARKS
GRAND ISLAND   MOCLDY    90  77  65 S9        29.86  HX 103
HASTINGS       PTCLDY    94  64  37 S5        29.88  HX  95
KEARNEY        MOCLDY    90  73  58 S8        29.89R HX  98
ORD            NOT AVBL
YORK           MOCLDY    90  75  62 S9        29.85S HX 100
AURORA         MOCLDY    95  79  59 S8        29.86  HX 112
LEXINGTON      PTSUNNY   94  69  43 SW3       29.90R HX  99
HOLDREGE       CLOUDY    94  63  35 S6        29.90S HX  95
HEBRON         CLEAR     93  66  40 S7        29.88R HX  96

...NEBRASKA PANHANDLE...

CITY           SKY/WX    TMP DP  RH WIND       PRES   REMARKS
CHADRON        MOSUNNY  100  39  12 W13       29.88  HX  95
ALLIANCE       CLOUDY    87  48  25 S20G29    29.99
SCOTTSBLUFF    MOSUNNY   87  54  32 SE16      29.99
SIDNEY         PTSUNNY   89  50  26 N10       30.06

...WESTERN AND NORTH CENTRAL NEBRASKA...

CITY           SKY/WX    TMP DP  RH WIND       PRES   REMARKS
VALENTINE      SUNNY    100  56  23 N3        29.84  HX  99
AINSWORTH      MOSUNNY   94  56  27 NW5       29.85R HX  92
ONEILL         PTSUNNY   92  62  36 S6        29.82R HX  92
BROKEN BOW     PTSUNNY   89  74  60 S7        29.88  HX  98
IMPERIAL       LGT RAIN  92  56  29 S14       29.97  HX  90
NORTH PLATTE   MOSUNNY   89  61  38 S9        29.91
MCCOOK         PTSUNNY   88  59  37 SE8       29.92

...EASTERN NEBRASKA...

CITY           SKY/WX    TMP DP  RH WIND       PRES   REMARKS
NORFOLK        PTCLDY    88  78  72 S7        29.81  HX 101
SO SIOUX CITY  PTCLDY    89  78  70 SE7       29.79  HX 103
TEKAMAH        MOCLDY    90  78  68 SE7       29.80  HX 104
COLUMBUS       CLOUDY    91  77  62 SW6       29.83R HX 105
ALBION         MOCLDY    88  76  68 CALM      29.83F HX  98
OMAHA EPPLEY   CLOUDY    92  77  61 S17G24    29.82  HX 105
OFFUTT AFB     MOCLDY    89  82  79 SE9       29.83  HX 110
MILLARD        MOCLDY    91  79  68 SE6       29.82F HX 108
LINCOLN        CLOUDY    94  76  55 S15       29.83  HX 106
NEBRASKA CITY  PTCLDY    87  76  69 S9        29.86F HX  97
BEATRICE       MOCLDY    89  76  65 S9        29.87R HX 101
FALLS CITY     PTCLDY    89  76  65 S10       29.88  HX 100

...NORTHERN KANSAS...

CITY           SKY/WX    TMP DP  RH WIND       PRES   REMARKS
GOODLAND       PTSUNNY   86  60  41 S14       30.03
HILL CITY      CLOUDY    90  67  46 S7        29.94  HX  93
NORTON         CLEAR     88  52  29 S16G23    29.91S
PHILLIPSBURG   CLEAR     93  72  49 SE12      29.90  HX 100
SMITH CENTER   CLEAR     91  72  52 S14       29.91S HX  98
HAYS           CLOUDY    88  66  48 S13       29.93F HX  90
RUSSELL        CLOUDY    90  72  55 S13       29.92  HX  97
CONCORDIA      CLEAR     93  68  43 S12       29.90  HX  97
SALINA         CLEAR     96  68  39 S13       29.92  HX 101
TOPEKA         PTCLDY    92  74  55 S13       29.92  HX 101



USA.gov is the U.S. government's official web portal to all federal, state and local government web resources and services.